Theta_e
302 305 308 310 311 312 315 314 314 313 313 314 313 313 312 312 312 311 310 310 308 307 306 305 304 305 304 303 303 302 302 302 300 300 300 300 301 300 300 299 297 297
299 302 304 307 309 311 313 315 315 314 314 314 314 313 313 312 312 311 310 310 307 307 306 305 303 303 302 302 302 301 300 301 300 299 297 297 298 298 299 298 297 297
298 299 301 304 306 308 311 315 315 315 314 314 314 313 313 313 312 311 311 310 308 308 306 305 303 303 302 302 301 301 300 300 300 299 298 297 296 296 297 297 297 295
297 298 298 299 304 306 309 312 313 314 314 314 313 313 313 312 312 311 311 307 308 307 306 304 302 302 301 301 300 300 300 300 300 299 299 298 297 296 296 296 296 295
296 297 297 297 299 302 306 309 311 312 313 314 314 313 312 311 310 310 310 309 309 307 306 304 303 302 300 299 299 299 298 298 297 297 298 297 296 296 296 294 294 293
296 296 296 296 296 298 302 306 311 312 312 312 313 313 313 312 310 309 309 308 309 307 305 304 303 302 300 299 299 299 298 298 296 296 296 295 295 295 293 293 292 291
295 295 295 296 295 296 297 303 309 310 312 311 312 312 313 311 309 309 309 308 308 306 305 304 303 302 301 299 298 298 298 297 295 295 294 295 294 292 292 291 291 291
294 295 295 295 294 295 295 299 305 311 311 311 310 311 312 311 310 309 308 308 308 306 305 304 303 301 300 299 298 296 295 296 294 294 294 294 292 292 291 291 291 290
294 294 294 294 293 294 294 295 300 307 310 310 310 310 310 311 310 309 307 307 307 306 304 304 302 302 300 299 298 297 295 295 294 294 293 293 291 291 291 291 290 290
293 293 293 293 292 293 293 294 295 303 307 309 309 309 309 309 310 309 308 306 305 305 304 303 301 301 300 300 299 297 295 294 294 294 294 293 292 292 291 290 290 289
292 293 292 292 292 292 292 293 294 297 305 307 308 308 308 309 308 309 308 306 306 304 302 302 301 301 299 299 299 298 296 295 294 294 294 294 293 292 291 291 290 290
292 292 292 292 291 291 292 293 293 294 302 305 307 305 306 308 307 307 306 306 305 304 303 301 301 301 300 299 299 298 297 296 295 294 294 294 293 292 291 291 290 291
290 291 292 291 291 291 291 292 292 293 297 303 303 303 303 303 305 305 305 306 305 305 303 302 301 300 300 300 299 298 298 296 295 294 294 294 293 292 292 291 291 290
289 290 291 291 291 291 291 292 292 292 295 300 301 303 303 303 303 303 304 305 306 305 304 303 301 299 299 299 299 299 297 296 294 292 292 292 292 292 292 291 291 290
288 290 291 291 290 290 290 291 291 292 293 297 298 302 302 303 303 304 303 303 304 304 303 302 302 300 300 299 298 296 295 294 293 292 292 291 291 291 291 291 291 291
287 289 290 290 289 289 289 290 290 291 292 294 295 299 301 300 301 302 302 302 302 302 302 303 303 303 298 297 297 296 294 294 293 293 292 291 291 290 290 291 291 291
286 288 289 288 288 288 288 289 289 290 291 292 294 295 296 298 300 300 300 301 300 300 299 300 302 302 297 298 298 297 297 294 293 293 292 292 291 290 289 290 290 291
286 287 287 287 287 287 288 288 289 289 290 291 293 294 294 296 298 299 300 300 301 300 300 298 298 297 298 298 298 298 296 294 294 293 292 292 291 291 291 290 290 290
286 285 285 286 286 287 288 288 288 289 289 290 292 294 294 294 296 297 298 299 298 298 299 300 299 297 298 298 298 298 297 296 294 293 293 293 292 291 291 291 290 290
284 285 285 286 287 287 288 288 288 288 289 291 293 293 293 293 294 295 296 297 298 298 297 297 298 297 298 297 297 297 297 296 293 293 293 292 292 291 291 291 291 290
284 285 285 286 287 287 287 288 288 289 289 291 293 292 293 293 294 294 294 294 294 296 297 295 296 296 298 297 297 297 297 296 293 293 293 292 292 292 291 291 291 291
284 285 286 286 287 287 287 288 288 288 289 291 292 293 293 294 294 294 293 293 293 293 294 295 296 296 297 297 297 298 297 295 293 292 292 292 291 291 291 292 291 291
285 285 286 286 286 287 287 287 288 288 289 291 291 292 292 292 293 293 294 293 292 292 293 294 294 295 296 296 297 297 296 295 294 293 293 291 291 291 291 291 291 291
285 285 285 286 286 287 287 288 288 289 289 291 291 291 291 292 293 293 293 293 292 292 293 293 292 293 296 296 296 297 295 295 294 294 292 292 291 290 291 291 290 289
284 285 286 286 287 287 287 287 288 288 290 290 291 291 291 292 292 293 292 292 292 292 291 293 292 292 294 296 296 296 295 294 295 294 292 292 292 291 291 291 290 289
283 285 286 286 286 287 287 288 288 289 289 290 290 292 292 292 292 292 291 292 291 291 291 292 293 292 292 295 296 296 296 294 294 293 292 291 291 291 290 290 290 290
Wind_Speed
18 16 15 15 16 14 13 13 14 16 16 15 17 17 18 17 17 19 17 14 18 18 16 15 14 13 11 12 14 13 12 14 11 9 12 13 11 13 13 13 13 13
19 18 16 15 15 14 14 16 16 17 18 18 16 16 16 17 18 17 18 17 18 18 17 17 15 14 15 13 12 12 11 11 13 10 11 13 11 12 13 14 13 10
18 19 19 18 17 18 18 16 17 17 16 18 17 15 14 15 19 18 17 17 19 20 19 17 17 16 16 16 15 14 14 14 14 12 13 14 10 11 12 12 10 13
18 17 17 19 18 18 18 16 15 16 16 16 17 17 17 15 17 20 18 19 17 18 18 18 18 16 15 14 13 12 14 15 15 15 15 13 11 10 10 9 10 9
16 16 17 18 18 18 18 18 17 16 19 18 19 18 17 17 16 18 19 18 17 16 16 18 19 18 17 15 16 12 12 12 11 12 12 12 11 13 12 10 12 13
14 14 15 16 18 19 18 19 18 16 16 18 20 20 20 21 17 17 19 19 17 16 16 17 19 18 18 18 16 14 14 11 12 14 14 13 12 11 10 11 13 12
15 14 15 15 17 20 20 19 17 14 13 13 14 17 18 19 20 19 19 20 19 17 18 17 18 18 17 16 16 16 14 15 14 15 16 13 12 12 10 11 12 12
14 13 13 13 16 18 20 20 19 16 17 15 17 17 20 21 21 18 17 19 20 18 18 17 17 18 18 17 17 16 15 11 13 15 15 14 13 14 13 11 13 13
12 13 13 14 15 15 18 21 22 17 14 19 17 16 15 19 21 20 19 17 20 19 17 18 18 17 17 18 18 19 18 16 15 17 17 16 16 16 15 13 12 12
12 12 13 13 14 13 17 20 21 20 13 15 20 18 19 17 18 20 20 20 16 18 20 18 18 17 16 17 20 19 18 18 18 17 17 17 19 18 17 15 15 14
12 12 12 13 13 13 16 18 19 21 14 13 12 16 20 19 19 20 20 21 21 17 16 17 19 18 17 16 16 18 19 18 18 18 18 19 18 18 18 18 18 17
12 12 12 13 12 13 14 15 17 20 17 13 15 14 14 19 20 18 19 21 21 21 18 16 16 19 19 18 17 17 18 18 17 18 18 19 18 17 17 17 17 17
12 12 12 11 11 12 12 14 16 18 19 14 12 15 15 12 17 20 18 21 21 21 21 19 16 16 18 19 17 17 18 19 18 17 17 16 17 18 18 17 17 17
13 13 12 11 11 11 12 13 14 16 18 14 12 16 17 17 17 17 17 17 19 19 18 19 20 17 14 16 17 17 17 18 18 18 16 14 15 17 18 18 17 16
14 13 11 11 11 12 12 13 14 15 17 14 11 15 17 19 18 18 17 17 17 18 18 17 18 18 17 17 16 16 14 15 17 19 18 17 15 15 16 17 17 16
16 15 12 10 11 12 13 13 13 14 15 14 11 11 17 16 17 17 17 17 16 17 18 18 19 16 20 26 22 17 15 13 13 16 18 17 16 15 15 16 17 16
17 15 10 11 11 13 12 13 13 12 14 13 12 10 11 17 16 17 17 17 16 15 15 15 15 15 28 27 27 27 20 16 15 14 16 16 15 16 15 15 14 15
18 12 10 11 12 13 13 12 12 12 13 13 11 11 10 11 17 18 17 15 15 17 15 13 11 14 25 29 30 29 23 17 17 16 15 15 16 16 14 15 16 14
11 9 11 13 13 13 12 11 12 12 13 13 12 11 11 12 15 16 16 16 15 13 16 18 16 16 18 26 28 28 29 23 14 15 16 15 16 17 16 16 15 14
11 11 13 13 12 11 11 12 11 12 13 12 11 10 11 12 12 14 14 16 17 16 12 10 13 24 28 25 24 27 29 24 15 16 16 17 18 17 16 16 17 16
12 13 13 12 11 11 12 12 11 11 13 11 10 11 12 13 13 13 12 11 12 14 16 13 10 18 26 30 29 25 24 22 15 16 15 15 17 18 18 18 17 17
14 13 12 11 11 11 12 12 11 11 12 10 10 10 11 11 11 12 13 14 12 11 11 14 15 21 21 25 30 31 30 17 12 14 15 14 14 15 16 15 16 17
12 12 12 11 11 11 12 11 11 12 11 9 10 10 10 11 12 13 14 15 15 13 13 12 12 22 27 24 24 29 26 17 16 13 13 14 14 14 14 14 15 16
11 11 11 11 11 11 11 11 10 9 11 9 10 10 11 12 11 11 11 12 15 15 15 12 10 17 27 29 28 26 23 19 16 14 13 13 11 12 12 12 15 22
16 13 11 11 11 11 10 11 10 10 10 8 9 10 11 9 9 10 10 10 13 15 18 17 12 13 21 25 28 29 23 15 15 15 14 13 12 12 11 11 12 16
12 12 12 11 11 10 10 10 9 8 9 9 9 9 9 10 11 11 12 11 11 12 13 16 15 14 18 23 25 28 29 18 13 14 15 15 13 13 12 10 11 11
Wind_Direction
321 311 291 281 277 265 245 221 199 195 189 186 184 189 184 182 182 185 182 179 180 176 175 174 175 172 162 163 169 170 174 172 165 171 173 176 183 176 179 178 179 184
326 319 306 290 282 277 254 225 208 198 191 187 186 185 187 177 183 185 183 182 179 178 174 169 173 165 160 171 173 171 171 167 173 168 170 175 175 178 181 180 180 176
326 324 321 307 294 287 273 235 208 199 194 190 183 181 182 184 180 183 185 182 183 181 176 172 170 170 171 174 173 171 174 179 177 175 172 180 174 179 181 178 175 177
322 322 321 319 308 293 285 262 222 204 198 189 185 182 181 182 185 180 183 183 183 183 176 168 169 169 168 168 173 175 178 182 179 172 178 177 178 172 176 177 176 179
314 318 321 320 319 312 296 273 233 206 197 193 188 184 178 180 186 183 179 181 183 182 176 173 172 171 165 168 170 174 177 179 173 168 173 177 178 176 184 174 181 183
308 312 318 320 322 323 311 288 244 213 197 195 191 184 184 180 179 184 179 180 182 179 178 178 175 172 170 168 171 178 176 174 173 169 172 177 173 181 174 180 175 183
308 314 318 321 322 322 318 301 270 231 206 193 188 190 183 177 178 182 181 179 180 178 180 180 177 173 171 169 173 174 177 174 170 172 173 175 169 176 178 177 178 182
306 307 312 317 320 322 319 313 292 236 207 194 190 193 183 179 179 179 180 178 178 181 181 179 179 175 171 169 172 170 173 172 169 173 175 171 167 177 179 183 179 179
301 305 309 315 318 320 318 317 308 270 219 187 190 188 194 184 176 175 175 183 180 176 179 179 179 178 175 173 173 172 172 172 172 174 175 172 174 180 179 180 177 178
298 299 304 309 315 317 314 313 312 293 234 209 185 179 184 186 180 177 173 175 187 180 177 179 178 178 180 181 175 172 172 173 173 175 176 178 179 179 177 174 178 177
293 296 298 304 310 312 312 309 308 304 257 207 192 185 182 181 181 178 177 178 177 181 182 180 178 176 179 184 184 176 174 175 176 177 178 181 183 180 175 176 178 181
292 293 294 299 304 308 307 306 304 305 279 228 188 182 188 180 177 179 179 180 179 177 178 181 183 176 177 183 185 182 176 178 177 178 180 181 181 178 177 178 177 180
292 291 291 292 298 300 302 301 302 301 292 243 199 177 176 184 179 180 184 181 180 176 177 177 183 182 177 179 184 184 181 177 176 180 183 183 180 176 176 179 181 178
295 293 286 286 291 296 297 297 296 299 295 264 211 177 177 180 185 182 180 184 182 180 180 176 172 176 180 180 182 186 187 185 177 177 180 184 181 178 177 178 179 179
298 292 280 282 288 294 295 294 294 295 295 269 236 191 179 180 181 183 181 185 186 177 175 176 177 177 176 181 185 186 190 189 183 178 177 180 183 182 180 178 178 180
296 287 277 279 288 292 292 290 289 292 293 270 229 216 181 180 176 180 180 183 184 184 181 183 184 180 177 179 180 183 185 189 189 184 180 179 180 181 181 181 181 179
291 278 268 279 286 289 287 286 285 288 288 273 227 206 199 174 175 178 180 181 181 179 180 188 190 183 178 180 182 182 181 182 187 190 185 180 181 180 179 179 183 185
279 267 273 282 287 282 280 281 281 284 284 268 239 198 193 181 174 177 179 181 184 181 178 183 187 189 184 183 182 181 181 182 185 184 187 185 181 183 182 178 180 183
256 273 281 284 280 274 274 277 278 280 279 265 235 210 181 187 182 177 178 178 181 191 189 181 182 178 184 188 184 182 183 183 184 187 183 187 183 182 182 182 180 181
279 279 281 278 269 267 270 272 273 275 274 257 232 217 186 182 184 180 181 181 181 182 189 192 192 180 176 183 192 188 185 183 184 186 192 184 182 182 182 182 181 177
277 277 275 267 261 264 268 268 270 277 273 252 227 209 196 182 181 182 180 181 188 183 178 180 192 191 183 176 180 189 191 186 184 183 189 192 187 183 182 181 181 179
270 271 261 254 259 263 264 266 270 273 268 248 221 210 203 185 181 177 179 182 182 187 191 185 182 180 192 187 181 180 181 185 189 190 191 194 189 188 183 181 180 178
259 253 249 254 258 258 259 262 270 272 264 238 218 209 196 188 184 184 182 180 180 183 189 193 187 182 181 188 190 182 176 181 184 188 193 192 190 186 184 182 184 182
264 248 252 256 253 250 253 261 263 264 259 230 214 200 197 191 182 182 182 181 182 184 187 188 191 192 187 184 185 187 183 180 180 185 191 190 189 186 186 186 188 186
255 255 256 253 249 247 251 259 256 257 253 225 213 203 197 186 179 179 182 185 188 187 184 183 184 189 193 190 187 184 183 184 180 181 185 188 184 186 190 188 188 192
282 274 261 250 246 251 254 252 253 252 244 221 209 201 196 184 181 183 180 186 184 185 188 189 185 184 188 193 190 188 182 179 182 182 186 183 182 179 182 189 187 190